Location: Eboldshausen
(51.7766°N, 10.0050°E)
Time: 16:16:56
(UTC+00:00)

Okean 2 Rocket - Pass Details

Date: 15 November 2025
Orbit: 611 x 635 km, 82.5° (Epoch: 09 December)

Event Time Altitude Azimuth Distance (km) Brightness Sun altitude
Rises 17:53:37 0° 180° (S) 2,890 6.5 -22.1°
Reaches altitude 10° 17:55:51 10° 177° (S) 1,984 5.6 -22.4°
Enters shadow 17:58:28 35° 165° (SSE) 1,009 4.0 -22.8°
